www.pogodaiklimat.ru
ПОГОДА в Истоне
Время
и дата
06:04 30.11
06:45 30.11
07:45 30.11
08:50 30.11
09:50 30.11
10:50 30.11
11:50 30.11
12:50 30.11
13:50 30.11
14:45 30.11
15:45 30.11
16:20 30.11
16:45 30.11
17:45 30.11
18:50 30.12
19:50 30.11
20:50 30.11
23:24 30.11
23:44 30.11
00:04 01.12
00:24 01.12
00:44 01.12
01:04 01.12
01:24 01.12
01:35 01.12
02:04 01.12
02:24 01.12
02:44 01.12
03:04 01.12
03:24 01.12
03:44 01.12
04:04 01.12
04:24 01.12
04:44 01.12
05:04 01.12
05:24 01.12
05:44 01.12
05:45 01.12
06:04 01.12
06:45 01.12
07:50 01.12
08:50 01.12
09:45 01.12
10:45 01.12
11:50 01.12
12:50 01.12
13:45 01.12
14:50 01.12
Ветер
(напр.,м/с)
Видим. Явления Облачность Т
(С)
Тd
(С)
f
(%)
Тe
(С)
Тes
(С)
Комфортность P
(гПа)
Po
(гПа)
Тmin
(С)
Tmax
(С)
R
(мм)
R24
(мм)
S
(см)
ЮВ 5 16 км 10/10 1110 м +9.7 +9.2 97 +6 +6 1015.9
ЮВ 6 16 км 10/10 1110 м +11.0 +10.0 94 +8 +8 1015.2
ЮЗ 3 5 км сильный дождь 10/10 420 m
[Ns]
+11.0 +11.0 100 +9 +9 1014.8
Ю 4 11 км дождь 10/10 210 m
[Ns]
+12.0 +11.0 94 +10 +10 1014.5
Ю 6 11 км слабый дождь 10/10 210 m
[Ns]
+13.0 +12.0 94 +10 +10 1013.8
Ю 7
{9}
8 км дождь 10/10 270 m
[Ns]
+12.0 +12.0 100 +9 +9 1011.5
Ю 6
{9}
11 км слабый дождь 10/10 270 m
[Ns]
+12.0 +12.0 100 +9 +9 1009.8
Ю 6
{10}
11 км слабый дождь 10/10 210 m
[Ns]
+12.0 +12.0 100 +9 +9 1008.4
Ю 7
{12}
11 км дымка 10/10 270 м +13.0 +13.0 100 +10 +10 1007.1
Ю 7
{10}
11 км 10/10 270 м +13.0 +13.0 100 +10 +10 1006.4
Ю 7 16 км 10/10 270 м +14.0 +14.0 100 +12 +12 1006.7
Ю 6 16 км 5/5 390 м +14.0 +13.0 94 +12 +12 1006.7
ЮЗ 3 16 км 8/8 450 м +14.0 +13.0 94 +13 +13 1007.4
З 4 16 км 10/10 1350 м +12.0 +5.0 62 +10 +10 1009.8
З 11
{14}
16 км 8/0 2100 m
[Ac]
+12.0 -2.0 38 +9 +9 1011.5
З 9
{13}
16 км ясно +10.0 -6.0 32 +6 +6 1012.8
З 6 16 км ясно +9.0 -6.0 34 +6 +6 1013.5
СЗ 7
{12}
16 км ясно +6.7 -6.5 38 +3 +3 1015.9
З 8
{12}
16 км ясно +6.2 -6.6 39 +2 +2 1016.2
СЗ 6
{8}
16 км ясно +5.6 -6.4 42 +1 +1 1016.5
З 6
{9}
16 км ясно +5.2 -6.1 44 +1 +1 1016.5
СЗ 4
{9}
16 км ясно +5.2 -6.1 44 +2 +2 1016.9
З 5
{8}
16 км ясно +5.3 -6.1 44 +1 +1 1016.9
СЗ 7
{12}
16 км ясно +5.7 -6.9 40 +1 +1 1017.2
З 6
{10}
16 км ясно +5.3 -6.5 42 +1 +1 1017.2
З 8
{12}
16 км ясно +5.2 -6.2 44 0 0 1017.5
З 8
{11}
16 км ясно +5.5 -6.8 41 +1 +1 1018.2
З 6
{11}
16 км ясно +5.2 -7.0 41 +1 +1 1018.6
З 6
{10}
16 км ясно +4.9 -6.7 43 +1 +1 1019.2
З 9
{11}
16 км ясно +5.0 -7.4 40 0 0 1019.6
З 8
{13}
16 км ясно +4.9 -9.1 36 0 0 1019.9
З 5
{12}
16 км ясно +4.8 -7.4 41 +1 +1 1020.6
З 7
{11}
16 км ясно +4.6 -7.3 42 0 0 1020.2
З 4 16 км ясно +4.2 -7.0 44 +1 +1 1020.6
З 5
{9}
16 км ясно +4.2 -7.3 43 0 0 1021.3
З 7
{10}
16 км ясно +4.0 -7.4 43 -1 -1 1021.9
СЗ 5
{9}
16 км ясно +3.6 -7.1 45 -1 -1 1022.6
З 6
{10}
16 км ясно +3.0 -7.0 48 -2 -2 1022.6
СЗ 6
{9}
16 км ясно +3.5 -7.1 46 -1 -1 1022.9
З 7
{10}
16 км ясно +3.0 -8.0 44 -2 -2 1024.0
СЗ 5
{9}
16 км ясно +3.0 -8.0 44 -2 -2 1025.6
СЗ 6
{10}
16 км ясно +3.0 -7.0 48 -2 -2 1027.0
З 4
{9}
16 км ясно +4.0 -8.0 41 0 +1 1027.7
СЗ 5
{9}
16 км ясно +5.0 -7.0 42 +1 +3 1028.3
СЗ 5
{10}
16 км ясно +5.0 -8.0 38 +1 +4 1028.0
СЗ 5
{9}
16 км ясно +5.0 -7.0 42 +1 +4 1028.7
СЗ 7 16 км ясно +6.0 -7.0 39 +2 +3 1028.7
З 4 16 км ясно +6.0 -8.0 36 +3 +5 1029.0
Местоположение метеостанции Newman Field Airport: широта 38.8000 долгота -76.0700 высота над уровнем моря 22 м.
В архиве по умолчанию представлена погода в Истоне за последние 1-2 суток. Обновление информации о фактической погоде в базе происходит ежечасно! Архивные данные за месяц целиком и за предыдущие месяцы Вы можете получить, выбрав интересующий диапазон дат из раскрывающегося списка и нажав кнопку "Ввод!".
Внимание! Архив погоды МЕТАР в базе сайта по станциям, не включенным в климатический монитор, хранится не более 60 дней. Нет смысла пытаться выбрать более раннюю дату.
*Определитесь, кто Вы:
Внимание! Время в таблицах - местное (без учета летнего времени). Для получения всемирного времени необходимо вычесть поправку, которая равна -5 ч.
Смотрите также архив погоды в соседних городах и на ближайших метеорологических станциях:
Партнеры нашего сайта:      
Пояснения к столбцам:
  • Ветер - указаны скорость ветра в м/с - средняя за 10 мин, порывы в срок и между сроками (в фигурных скобках) и направление, откуда дует ветер: С - северный,
  • СВ - северо-восточный, В - восточный, ЮВ - юго-восточный, Ю - южный, ЮЗ - юго-западный, З - западный, СЗ - северо-западный.
  • Видимость - горизонтальная дальность видимости в метрах или километрах. При видимости от 1 до 10 км при отсутствии осадков обычно наблюдается дымка, при ухудшении видимости до 1 км и менее - туман. В сухую погоду видимость может ухудшаться дымом, пылью или мглою.
  • Явления - указаны атмосферные явления, наблюдавшиеся в срок или в последний час перед сроком; фигурными скобками обозначены явления, наблюдавшиеся между сроками (за 1-3 часа до срока); квадратными скобками обозначены град или гололедные отложения с указанием их диаметра в мм.
  • Облачность - указаны через наклонную черту общая и нижняя облачность в баллах и высота нижней границы облаков в метрах; квадратными скобками обозначены формы облаков: Ci - перистые, Cs - перисто-слоистые, Cc - перисто-кучевые, Ac - высококучевые, As - высокослоистые, Sc - слоисто-кучевые, Ns - слоисто-дождевые, Cu - кучевые, Cb - кучево-дождевые. Подробнее классификацию облаков см. в Атласе облаков (PDF).
  • T - Температура воздуха - температура, измеренная на высоте 2 м над землей.
  • Td - Температура точки росы - температура, при понижении до которой содержащийся в воздухе водяной пар достигнет насыщения.
  • f - Относительная влажность воздуха - влажноcть воздуха, измеренная на высоте 2 м над землей.
  • Te - Эффективная температура - температура, которую ощущает одетый по сезону человек в тени. Характеристика душности погоды. При расчете учитывается влияние влажности воздуха и скорости ветра на теплоощущения человека.
  • Tes - Эффективная температура на солнце - температура, которую ощущает человек, с поправкой на солнечный нагрев. Характеристика знойности погоды. Зависит от высоты солнца над горизонтом, облачности и скорости ветра. Ночью, в пасмурную погоду, а также при ветре 12 м/с и более поправка равна нулю.
  • P - Атмосферное давление - приведенное к уровню моря атмосферное давление.
  • Po - Атмосферное давление - измеренное на уровне метеостанции атмосферное давление.
  • Tmin - Минимальная температура - минимум температуры воздуха на высоте 2 м над землей.
  • Tmax - Максимальная температура - максимум температуры воздуха на высоте 2 м над землей.
  • R - Количество осадков - Количество выпавших осадков за период времени, мм. При наведении курсора мыши на число - период времени, за который выпало указанное количество осадков.
  • R24 - Количество осадков - Количество выпавших осадков за 24 часа, мм.
  • S - Снежный покров - Высота снежного покрова, см. При наведении курсора мыши на число - состояние снежного покрова и степень покрытия местности в баллах.